Location: ?????
(31.8092°N, 35.2590°E)
Time: 04:15:26
(UTC+00:00)

Lacrosse 5 - Pass Details

Date: 30 October 2021
Orbit: 714 x 724 km, 57.0° (Epoch: 28 August)

Event Time Altitude Azimuth Distance (km) Brightness Sun altitude
Rises 17:09:28 0° 255° (WSW) 3,128 6.2 -29.9°
Reaches altitude 10° 17:12:25 10° 272° (W) 2,210 5.3 -30.5°
Maximum altitude 17:16:11 21° 320° (NW) 1,612 4.0 -31.3°
Enters shadow 17:17:31 19° 341° (NNW) 1,697 3.9 -31.6°
